Weather History for Naples, FL

Change the Weather History Date:

Friday, December 28, 2012

  Actual Average Record
Temperature  
Mean Temperature 65 °F 65 °F  
Max Temperature 79 °F 75 °F 88 °F (1990)
Min Temperature 50 °F 55 °F 33 °F (1977)
Degree Days  
Heating Degree Days 0 3  
Month to date heating degree days 25 52  
Since 1 July heating degree days 38 66  
Cooling Degree Days 0 3  
Month to date cooling degree days 150 113  
Year to date cooling degree days 4116 3932  
Growing Degree Days 14 (Base 50)    
Moisture  
Dew Point 61 °F    
Average Humidity 80    
Maximum Humidity 96    
Minimum Humidity 64    
Precipitation  
Precipitation 0.00 in 0.04 in 2.23 in (1978)
Month to date precipitation 1.78 1.34  
Year to date precipitation 37.93 51.78  
Snow  
Snow 0.00 in - - ()
Month to date snowfall 0.0  
Since 1 July snowfall 0.0  
Snow Depth 0.00 in    
Sea Level Pressure  
Sea Level Pressure 30.01 in    
Wind  
Wind Speed 8 mph (ESE)    
Max Wind Speed 15 mph    
Max Gust Speed 18 mph    
Visibility 10 miles    
Events      
T = Trace of Precipitation, MM = Missing Value Source: NWS Daily Summary

Daily Weather History Graph

Daily Weather History Graph

Search for Another Location

Airport:

Trip Planner

Search our weather history database for the weather conditions in past years. The results will help you decide how hot, cold, wet, or windy it might be!

Date:

Astronomy

Dec. 28, 2012 Rise Set
Actual Time 7:13 AM EST 5:44 PM EST
Civil Twilight 6:48 AM EST 6:09 PM EST
Nautical Twilight 6:19 AM EST 6:38 PM EST
Astronomical Twilight 5:51 AM EST 7:06 PM EST
Moon 6:14 PM EST (12/28) 7:11 AM EST (12/28)
Length of Visible Light 11h 21m
Length of Day
10h 31m
Full, 100% of the Moon is Illuminated
Dec 28
Full
Jan 4
Last Quarter
Jan 11
New
Jan 18
First Quarter
Jan 26
Full

Hourly Weather History & Observations

Time (EST) Temp. Dew Point Humidity Pressure Visibility Wind Dir Wind Speed Gust Speed Precip Events Conditions
12:53 AM 51.1 °F 48.9 °F 92% 30.06 in 10.0 mi Calm Calm - N/A   Clear
1:53 AM 50.0 °F 48.0 °F 93% 30.05 in 10.0 mi NE 4.6 mph - N/A   Clear
2:53 AM 50.0 °F 48.0 °F 93% 30.04 in 10.0 mi ENE 5.8 mph - N/A   Clear
3:53 AM 51.1 °F 48.0 °F 89% 30.03 in 10.0 mi ENE 6.9 mph - N/A   Clear
4:53 AM 52.0 °F 48.9 °F 89% 30.03 in 10.0 mi ENE 8.1 mph - N/A   Scattered Clouds
5:53 AM 53.1 °F 51.1 °F 93% 30.04 in 10.0 mi ENE 8.1 mph - N/A   Mostly Cloudy
6:53 AM 54.0 °F 51.1 °F 90% 30.05 in 10.0 mi ENE 6.9 mph - N/A   Mostly Cloudy
7:53 AM 55.9 °F 52.0 °F 87% 30.05 in 9.0 mi ENE 9.2 mph - N/A   Mostly Cloudy
8:53 AM 59.0 °F 54.0 °F 83% 30.06 in 10.0 mi ENE 10.4 mph - N/A   Mostly Cloudy
9:53 AM 66.9 °F 55.9 °F 68% 30.07 in 10.0 mi East 10.4 mph - N/A   Mostly Cloudy
10:53 AM 73.0 °F 61.0 °F 66% 30.06 in 10.0 mi ESE 10.4 mph 18.4 mph N/A   Partly Cloudy
11:53 AM 75.9 °F 63.0 °F 64% 30.03 in 10.0 mi ESE 8.1 mph - N/A   Mostly Cloudy
12:53 PM 77.0 °F 64.9 °F 66% 30.00 in 10.0 mi ESE 6.9 mph - N/A   Mostly Cloudy
1:44 PM 77.0 °F 66.2 °F 69% 29.98 in 10.0 mi SSE 6.9 mph - N/A   Mostly Cloudy
1:53 PM 78.1 °F 66.9 °F 68% 29.98 in 10.0 mi SE 11.5 mph - N/A   Mostly Cloudy
2:53 PM 78.1 °F 68.0 °F 71% 29.95 in 10.0 mi SE 10.4 mph - N/A   Mostly Cloudy
3:53 PM 75.9 °F 68.0 °F 76% 29.95 in 10.0 mi SSE 9.2 mph - N/A   Scattered Clouds
4:53 PM 75.9 °F 69.1 °F 79% 29.95 in 10.0 mi SSE 10.4 mph - N/A   Scattered Clouds
5:53 PM 75.0 °F 69.1 °F 82% 29.95 in 10.0 mi SE 9.2 mph - N/A   Overcast
6:53 PM 75.0 °F 69.1 °F 82% 29.97 in 10.0 mi SSE 9.2 mph - N/A   Overcast
7:53 PM 73.9 °F 69.1 °F 85% 29.98 in 10.0 mi SSE 10.4 mph - N/A   Overcast
8:53 PM 73.9 °F 70.0 °F 87% 29.99 in 10.0 mi SE 9.2 mph - N/A   Overcast
9:53 PM 73.9 °F 70.0 °F 87% 29.98 in 10.0 mi SE 11.5 mph - N/A   Overcast
10:53 PM 73.0 °F 71.1 °F 93% 29.98 in 10.0 mi SE 10.4 mph - N/A   Overcast
11:53 PM 73.0 °F 71.1 °F 93% 29.97 in 10.0 mi SSE 10.4 mph - N/A   Mostly Cloudy